User: anonymous   Login
Location: Unspecified
(0.0000°N, 0.0000°E)
Time: 20:42:12
(UTC+00:00)
Language:

STARLINK-31059 - Orbit

View from above orbital plane
View from above orbital plane
View from above satellite
View from above satellite

Ground track
Ground track

The orbit is defined by the following mean orbital elements,

1 58596U          26145.47036294 +.00000000 +00000-0 +19665-3 0 00009
2 58596  43.0012 298.5172 0001335 275.4263  84.6436 15.27581928    09
Epoch (UTC): 25 May 2026 11:17:19
Eccentricity: 0.0001335
inclination: 43.0012°
perigee height: 482 km
apogee height: 484 km
right ascension of ascending node: 298.5172°
argument of perigee: 275.4263°
revolutions per day: 15.27581928
mean anomaly at epoch: 84.6436°

The dashed part of the orbit path shows where the satellite is in the earth's shadow,  

DLR